Regional Weather Roundup
Issued by NWS Wakefield, VA

Home | Current Version | Previous Version | Graphics & Text | Print | Product List | Glossary On
Versions: 1 2 3 4 5 6 7 8 9 10 11 12 13 14 15 16 17 18 19 20 21 22 23 24 25 26 27 28 29 30 31 32 33 34 35 36 37 38 39 40 41 42 43 44 45 46 47 48 49 50
000
ASUS41 KAKQ 290910
RWRAKQ

REGIONAL WEATHER ROUNDUP
NATIONAL WEATHER SERVICE WAKEFIELD VA
500 AM EDT FRI AUG 29 2014

Note: "fair" indicates few or no clouds below 12,000 feet with no
significant weather and/or obstructions to visibility. * = Denotes
station may not report precipitation (e.g., rain,snow,etc.),
thunder or fog.

VAZ042-051-052>054-056-291000-
NORTHERN VIRGINIA

CITY           SKY/WX    TMP DP  RH WIND       PRES   REMARKS
WASH NATIONAL  CLEAR     67  51  56 NE7       30.15R
DULLES         CLEAR     60  53  77 N3        30.16R
FORT BELVOIR   CLEAR     58  55  89 N1        30.15R
QUANTICO       CLEAR     64  55  72 N7        30.15R
FREDERICKSBRG* CLEAR     60  57  89 NW3       30.12R
STAFFORD*      CLEAR     60  59  96 N5        30.17R
WARRENTON      CLEAR     58  58  98 NE5       30.14R
CULPEPER*      CLEAR    N/A N/A N/A N3        30.15R
MANASSAS*      CLEAR     57  55  94 CALM      30.15S
LEESBURG*      CLEAR     59  55  88 N3        30.16S
WINCHESTER     CLEAR     54  52  94 CALM      30.17R
$$

VAZ048-049-060>072-079>083-291000-
CENTRAL AND SOUTH CENTRAL VIRGINIA...AND NORTH CENTRAL NORTH CAROLINA

CITY           SKY/WX    TMP DP  RH WIND       PRES   REMARKS
RICHMOND       PTCLDY    66  59  78 N5        30.10S
CHESTERFIELD*  SUNNY    N/A N/A N/A NE3       30.11S
PETERSBURG*    PTCLDY    68  59  72 NE6       30.09S
HANOVER        CLEAR     61  59  93 CALM      30.13R
TAPPAHANNOCK*  CLEAR     62  58  88 CALM      30.11S
CHARLOTTSVILLE PTCLDY    61  55  81 NW3       30.14R
ORANGE*        CLEAR     59  54  82 CALM      30.15R
LOUISA*        CLEAR     63  55  77 N5        30.13R
FARMVILLE*     MOCLDY    64  64 100 N6        30.10R
SOUTH HILL*    MOCLDY    72  70  94 CALM      30.13S
ROANOKE RAPIDS CLOUDY    70  68  94 NE7       30.06S
RALEIGH        PTCLDY    74  70  87 NE5       30.05R
$$

VAZ088>098-291000-
SOUTHEAST VIRGINIA

CITY           SKY/WX    TMP DP  RH WIND       PRES   REMARKS
NORFOLK        LGT RAIN  75  66  73 E9        30.07R
VIRGINIA BEACH CLOUDY    74  67  78 NE8       30.07R
NORFOLK NAVAL  LGT RAIN  76  67  73 E10       30.09R
WEST POINT*    CLEAR     67  61  81 CALM      30.11S
NEWPORT NEWS   MOCLDY    76  61  59 NE7       30.08S
LANGLEY AFB    CLOUDY    74  67  80 NE8       30.07S
FORT EUSTIS    MOCLDY    74  58  57 NE6       30.06S
WILLIAMSBURG*  PTCLDY    72  66  83 CALM      30.09S
FRANKLIN*      CLOUDY    70  64  83 NE7       30.07S
WAKEFIELD      PTCLDY    71  66  84 N3        30.08R
$$

VAZ020-022-025-037-045-291000-
WESTERN AND SOUTHWEST VIRGINIA

CITY           SKY/WX    TMP DP  RH WIND       PRES   REMARKS
STAUNTON*      CLOUDY    58  54  86 CALM      30.19R
HOT SPRINGS VA CLEAR     55  48  77 E6        30.24S
LYNCHBURG      MOCLDY    65  55  70 N10       30.14R
DANVILLE       PTCLDY    70  65  84 NE8       30.09S
MARTINSVILLE   CLOUDY    71  68  91 NE5       30.14R
ROANOKE        PTCLDY    67  61  81 CALM      30.16R
BLACKSBURG     CLEAR     64  59  82 E6        30.18S
DUBLIN*        PTCLDY    63  63 100 CALM      30.18R FOG
MARION*        CLEAR    N/A N/A N/A CALM      30.20R HAZE
HILLSVILLE*    MOCLDY    64  63  94 NE5       30.17S
RICHLANDS*     SUNNY     68  65  89 NE3       30.15S
WISE*          CLEAR     66  66 100 CALM      30.16R
ABINGDON*      CLEAR     67  65  95 E5        30.12R
$$

MDZ021>025-VAZ099-100-291000-
SOUTHERN MARYLAND AND THE DELMARVA PENINSULA

CITY           SKY/WX    TMP DP  RH WIND       PRES   REMARKS
PATUXENT RIVER CLEAR     65  53  65 NE10      30.12R
BAY BRIDGE APT   N/A     63  50  63 N6        30.13S
LEONARDTOWN    CLEAR     63  54  72 E3        30.14R
DOVER          CLEAR     58  52  81 NW2       30.10R
GEORGETOWN     CLEAR     60  53  77 NW3       30.12R
EASTON         CLEAR     58  54  86 CALM      30.17R
CAMBRIDGE      CLEAR     63  52  67 N6        30.12R
SALISBURY      CLEAR     61  54  77 CALM      30.11R
OCEAN CITY     CLEAR     58  55  90 NW3       30.10R
WALLOPS ISLAND CLEAR     63  56  78 N7        30.10S
ACCOMACK*      NOT AVBL
$$

NCZ012>017-030>032-291000-
EASTERN NORTH CAROLINA

CITY           SKY/WX    TMP DP  RH WIND       PRES   REMARKS
ELIZABETH CITY LGT RAIN  75  70  84 N6        30.06R
AHOSKIE*       PTCLDY    71  69  95 N3        30.06R
EDENTON*       LGT RAIN  74  73  95 N14       30.05R
CURRITUCK*     CLOUDY    77  67  71 NE5       30.07R
KILL DEVIL HLS LGT RAIN  76  72  87 E5        30.04R
MANTEO         CLOUDY    74  72  91 NE5       30.05R
CAPE HATTERAS  CLOUDY    78  75  90 S3        30.03S
GOLDSBORO      PTCLDY    74  73  98 SW6       30.01S
WASHINGTON     MOCLDY    73  71  93 N7        30.05R
GREENVILLE     PTCLDY    73  72  94 NE5       30.06R FOG
NEW BERN       PTCLDY    74  69  85 SW5       30.04R
WILMINGTON     MOCLDY    73  70  90 CALM      30.04R
$$

VAZ048-291000-
ELSEWHERE

CITY           SKY/WX    TMP DP  RH WIND       PRES   REMARKS
HARRISBURG PA  PTCLDY    57  50  77 NW3       30.14R
BALTIMORE      PTCLDY    60  50  69 N5        30.14R
ANNAPOLIS      CLEAR     67  54  63 N3        30.13R
ANDREWS AFB    CLEAR     58  51  77 N6        30.14R
WILMINGTON DE  CLEAR     59  50  72 N7        30.13R
PHILADELPHIA   PTCLDY    62  49  62 N8        30.12R
WILDWOOD NJ*   CLEAR     61  48  63 N6        30.12R
ATLANTIC CITY  CLEAR     54  49  83 N5        30.10R
HENDERSON NC   MOCLDY    70  66  88 NE8       30.07S
GREENSBORO     CLOUDY    72  69  90 NE10      30.08R
ROCKY MOUNT    CLOUDY    75  72  90 NE9       30.05R FOG
FAYETTEVILLE   PTCLDY    72  67  84 S6        30.03R
CHARLOTTE      PTCLDY    71  63  75 CALM      30.06R
$$

VAZ100-291000-
MARINE

STATION/POSITION TIME  TEMP    WIND        PRES    WAVE   SWELL
                       AIR SEA DIR/SP/G            HT/PER HT/PER
                 (UTC) (F)     (DEG/KT/KT) (MB)    (FT/S) (FT/S)
44066 TX TWR #4  0900   70 72   20/ 14/ 16 1017.5R   6/11   3/11
CAPE MAY NJ      0900   65 79   20/  5/  9 1018.9R
LEWES DE         0900   69 74   10/ 12/ 14 1019.2R
15NM E FENWICK I 0900   70 73              1018.7R   4/ 5
OCEAN-CITY-INLET 0900   70 75   40/  4/  8 1018.8R
WACHAPREAGUE VA  0900   66 79   CALM  /  1 1018.8S
THOMAS POINT MD  0900   68 77   40/ 12/ 13 1021.2R
GOOSES REEF MD   0900   69      70/ 14/ 17 1020.4R
COVE POINT MD    0900   67      70/  9/ 10 1020.0R
SOLOMONS ISLAND  0900      79                N/A
BISHOPS HEAD MD  0900   67 77   30/  9/ 13 1019.0S
PINEY POINT MD   0900           50/  7/  9   N/A
POTOMAC MD       0900   72      60/ 16/ 17 1018.4R
CAMBRIDGE MD     0900   65 79   20/  8/  9 1019.6R
LEWISETTA VA     0900   72 78   60/ 13/ 18 1019.0R
RAPPAHANNOCK LGT 0900           60/  7/  7 1019.4R
STINGRAY PT      0900   76      60/ 10/ 12   N/A
YORK RVR RNG VA  0900   75      70/ 14/ 15 1018.1S
YORKTOWN VA      0900   75 80   50/ 11/ 12 1018.3S
JAMESTOWN VA     0900   72      70/  4/  6   N/A
DOMINION TERM VA 0900   76     130/  1/  5 1018.3F
KIPTOPEKE VA     0900      81   50/  3/  5   N/A
CHES BAY BRIDGE  0900   75 78   50/ 13/ 14 1017.9R
CAPE HENRY VA    0900   75      60/ 12/ 15 1017.2R
CHESAPEAKE LGHT  0800   75      60/ 14/ 15 1018.6S
WILLOUBY STN VA  0900   75      80/ 12/ 13 1017.1S
S CRANEY ISL VA  0900           30/ 11/ 14 1018.0S
CAPE HENRY BUOY  0900      77                N/A     3/ 9   2/11
1ST LANDING BUOY 0900   76      70/ 12/ 14 1018.0R
CAPE CHARLES BUO 0900      77                N/A     3/ 9   2/ 9
OFFSHORE WE BUOY 0900      76                N/A     3/10   3/10
64NM E OF VA BCH 0900   76 75   40/  8/ 10 1017.6R   4/ 9   3/ 9
DUCK PIER NC     0900   77 77   70/ 10/ 11 1016.8S
44056 DUCK FRF   0900                        N/A     3/10   2/11
OREGON INLET NC  0900   77 80   60/  6/  8 1017.1S
HATTERAS NC      0900   79 81   CALM  /  3 1017.4S
DIAMOND SHLS NC  0900   80     220/  4/  6 1016.9F   4/ 9   3/ 9
CAPE LOOKOUT NC  0800   80     240/  7/  9 1016.9F
$$


USA.gov is the U.S. government's official web portal to all federal, state and local government web resources and services.